sat.trackr.live / text

‹ back to catalog

ONEWEB-0282

NORAD 49000 · 2021-060AK

PAYLOAD ACTIVE UNKNOWN

§ Identity

Operator
Country
UK
Launch date
2021-07-01
Launch site
VOSTO
Launch vehicle
Mass (kg)
RCS (m²)

Purposes: comms

External: N2YO · Heavens-Above · Gunter

§ Orbital elements

Epoch: 2026-09-19T15:16:46.952256Z

Period
109.37 min
Inclination
87.9156°
Eccentricity
0.0001951
Mean motion
13.16595673 rev/d
Perigee alt
1,196.3 km
Apogee alt
1,199.2 km
Semi-major
7,575.9 km
B*
4.6748e-5
RAAN
210.0274°
Arg perigee
73.8947°
Mean anomaly
286.2398°
Rev number
25,203

§ Raw data

ONEWEB-02821 49000U 21060AK  26262.63665454  .00000031  00000+0  46748-4 0  99952 49000  87.9156 210.0274 0001951  73.8947 286.2398 13.16595673252037

JSON: /api/v1/satellites/49000 · /tle

For live sub-satellite position, see the globe view (requires WebGL).

§ Visibility from observer

Set your observer location to see the next 7 days of passes ≥ 10°. The values pass through the URL so the page stays shareable.

No JS? Fill the form by hand. The geolocation button needs JavaScript.